Location: Hillern
(53.0557°N, 9.8577°E)
Time: 19:37:29
(UTC+00:00)

Cosmos 1697 Rocket - Pass Details

Date: 19 May 2025
Orbit: 830 x 844 km, 71.0° (Epoch: 20 June)

Event Time Altitude Azimuth Distance (km) Brightness Sun altitude
Rises 21:16:55 0° 324° (NW) 3,408 7.8 -12.5°
Reaches altitude 10° 21:19:34 10° 315° (NW) 2,470 6.4 -12.7°
Maximum altitude 21:24:35 34° 253° (WSW) 1,374 3.9 -13.0°
Enters shadow 21:29:19 11° 192° (SSW) 2,372 4.6 -13.3°
